Carlsbad, CA

11:19 AM PDT on May 27, 2017 (GMT -0700)
McClellan-Palomar

Weather History for KCRQ - May, 2014

Change the Weather History Date:

Thursday, May 1, 2014

  Actual Average Record
Temperature  
Mean Temperature 78 °F -  
Max Temperature 95 °F 64 °F 95 °F (2014)
Min Temperature 63 °F 51 °F 45 °F (1999)
Cooling Degree Days 13    
Growing Degree Days 28 (Base 50)    
Moisture  
Dew Point 27 °F    
Average Humidity 19    
Maximum Humidity 40    
Minimum Humidity 5    
Precipitation  
Precipitation 0.00 in - - ()
Sea Level Pressure  
Sea Level Pressure 29.97 in    
Wind  
Wind Speed 3 mph (North)    
Max Wind Speed 13 mph    
Max Gust Speed 20 mph    
Visibility 10 miles    
Events      
Averages and records for this station are not official NWS values.
T = Trace of Precipitation, MM = Missing Value Source: NWS Daily Summary

Daily Weather History Graph

Daily Weather History Graph

Search for Another Location

Airport or City:

Trip Planner

Search our weather history database for the weather conditions in past years. The results will help you decide how hot, cold, wet, or windy it might be!

Date:

Astronomy

May. 01, 2014 Rise Set
Actual Time 6:01 AM PDT 7:31 PM PDT
Civil Twilight 5:34 AM PDT 7:57 PM PDT
Nautical Twilight 5:03 AM PDT 8:29 PM PDT
Astronomical Twilight 4:30 AM PDT 9:02 PM PDT
Moon 7:55 AM PDT (5/1) 10:05 PM PDT (5/1)
Length of Visible Light 14h 23m
Length of Day
13h 30m
Waxing Crescent, 7% of the Moon is Illuminated
May 1
Waxing Crescent
May 6
First Quarter
May 14
Full
May 21
Last Quarter
May 28
New

Hourly Weather History & Observations

Time (PDT) Temp. Dew Point Humidity Pressure Visibility Wind Dir Wind Speed Gust Speed Precip Events Conditions
12:53 AM 69.1 °F 21.0 °F 16% 29.95 in 10.0 mi Calm Calm - N/A   Clear
1:53 AM 68.0 °F 21.0 °F 17% 29.94 in 10.0 mi NNE 3.5 mph - N/A   Clear
2:53 AM 64.9 °F 23.0 °F 20% 29.94 in 10.0 mi Calm Calm - N/A   Clear
3:53 AM 66.9 °F 19.9 °F 17% 29.95 in 10.0 mi Calm Calm - N/A   Clear
4:53 AM 66.9 °F 19.0 °F 16% 29.97 in 10.0 mi Calm Calm - N/A   Clear
5:53 AM 63.0 °F 24.1 °F 23% 29.98 in 10.0 mi Calm Calm - N/A   Clear
6:53 AM 68.0 °F 24.1 °F 19% 30.01 in 10.0 mi Calm Calm - N/A   Clear
7:53 AM 77.0 °F 21.9 °F 13% 30.02 in 10.0 mi Calm Calm - N/A   Clear
8:53 AM 82.0 °F 17.1 °F 9% 30.02 in 10.0 mi Variable 3.5 mph - N/A   Clear
9:53 AM 84.9 °F 15.1 °F 7% 30.02 in 10.0 mi Variable 3.5 mph - N/A   Clear
10:53 AM 90.0 °F 10.0 °F 5% 30.01 in 10.0 mi ENE 12.7 mph 19.6 mph N/A   Clear
11:53 AM 91.9 °F 10.9 °F 5% 29.99 in 10.0 mi NE 8.1 mph 16.1 mph N/A   Clear
12:53 PM 93.0 °F 10.9 °F 5% 29.97 in 10.0 mi East 12.7 mph 17.3 mph N/A   Clear
1:53 PM 82.9 °F 39.0 °F 21% 29.97 in 10.0 mi West 10.4 mph - N/A   Clear
2:53 PM 82.9 °F 32.0 °F 16% 29.96 in 10.0 mi West 6.9 mph 16.1 mph N/A   Clear
3:53 PM 82.0 °F 30.9 °F 16% 29.95 in 10.0 mi WNW 6.9 mph 17.3 mph N/A   Clear
4:53 PM 80.1 °F 34.0 °F 19% 29.94 in 10.0 mi Variable 6.9 mph 16.1 mph N/A   Clear
5:53 PM 80.1 °F 27.0 °F 14% 29.94 in 10.0 mi Variable 6.9 mph - N/A   Clear
6:53 PM 77.0 °F 35.1 °F 22% 29.94 in 10.0 mi Variable 5.8 mph - N/A   Clear
7:53 PM 73.0 °F 37.9 °F 28% 29.95 in 10.0 mi West 6.9 mph - N/A   Clear
8:53 PM 71.1 °F 41.0 °F 34% 29.97 in 10.0 mi West 3.5 mph - N/A   Clear
9:53 PM 69.1 °F 44.1 °F 40% 29.98 in 10.0 mi ESE 3.5 mph - N/A   Clear
10:53 PM 70.0 °F 37.0 °F 30% 29.98 in 10.0 mi SE 4.6 mph - N/A   Clear
11:53 PM 66.9 °F 42.1 °F 40% 29.98 in 10.0 mi Calm Calm - N/A   Clear